Flag for Hungary Weather past 2 weeks in Debrecen, Hungary

Now
72 °F

Scattered clouds.


Feels Like: 75 °F
Forecast: 61 / 84 °F
Wind: 9 mph from Northeast

Location: Debrecen Airport

Current Time: Aug 20, 2014 at 7:41:44 PM

Latest Report: Aug 20, 2014 at 6:45 PM


Visibility: N/A

Pressure: 29.95 "Hg

Humidity: 65%

Dew point: 59 °F

Location of DebrecenLocation

Historic Weather in Debrecen — Graph

°F

Debrecen temperature yesterday

Maximum temperature yesterday: 81 °F (at 3:15 PM)
Minimum temperature yesterday: 54 °F (at 6:15 AM)
Average temperature yesterday: 73 °F

Past Weeks' High & Low Weather Summary

 TemperatureHumidityPressure
High90 °F (Aug 13, 2:15 PM)100% (Aug 9, 4:45 AM)30.04 "Hg (Aug 9, 4:45 AM)
Low50 °F (Aug 18, 4:45 AM)31% (Aug 10, 3:45 PM)29.77 "Hg (Aug 13, 5:45 PM)
Average73 °F68%29.92 "Hg
* Reported Aug 5 6:15 PM — Aug 20 6:15 PM, Debrecen, Weather by CustomWeather, © 2014

Note: Actual official high and low records may vary slightly from our data, if they occured in-between our weather recording intervals... More about our weather records

Advertising

Debrecen weather history for previous 24 hours

 ConditionsComfort  
Time TempWeatherWind HumidityBarometerVisibility
6:15 PM
Aug 20
73 °FScattered clouds.10 mph61%29.95 "HgN/A
5:45 PM73 °FScattered clouds.9 mph61%29.95 "HgN/A
5:15 PM73 °FScattered clouds.10 mph69%29.95 "HgN/A
4:45 PM73 °FSprinkles. Broken clouds.8 mph65%29.95 "HgN/A
4:15 PM77 °FScattered clouds.13 mph54%29.95 "HgN/A
3:45 PM77 °FScattered clouds.9 mph57%29.95 "HgN/A
3:15 PM77 °FScattered clouds.9 mph57%29.95 "HgN/A
2:45 PM79 °FThunderstorms. Scattered clouds.6 mph51%29.95 "HgN/A
2:15 PM79 °FThunderstorms. Scattered clouds.8 mph51%29.95 "HgN/A
1:45 PM79 °FScattered clouds.5 mph51%29.98 "HgN/A
1:15 PM79 °FScattered clouds.No wind48%29.98 "HgN/A
12:45 PM81 °FBroken clouds.No wind48%29.98 "HgN/A
12:15 PM81 °FPartly sunny.No wind48%29.98 "HgN/A
11:45 AM79 °FPartly sunny.2 mph51%29.98 "HgN/A
11:15 AM77 °FPartly sunny.2 mph57%29.98 "HgN/A
10:45 AM77 °FPartly sunny.No wind57%29.98 "HgN/A
10:15 AM75 °FSunny.No wind65%29.98 "Hg10 mi
9:45 AM73 °FSunny.No wind69%29.98 "Hg10 mi
9:15 AM72 °FSunny.1 mph73%29.98 "Hg10 mi
8:45 AM68 °FSunny.No wind83%29.98 "Hg10 mi
8:15 AM66 °FBroken clouds.No wind83%29.98 "HgN/A
7:45 AM64 °FBroken clouds.No wind88%29.98 "HgN/A
7:15 AM64 °FLight rain. Broken clouds.2 mph83%29.98 "HgN/A
6:45 AM64 °FBroken clouds.No wind83%29.95 "HgN/A
6:15 AM63 °FPartly cloudy.No wind83%29.95 "HgN/A
5:45 AM63 °FPartly cloudy.No wind83%29.95 "HgN/A
5:15 AM63 °FPassing clouds.No wind83%29.95 "HgN/A
4:45 AM64 °FClear.No wind78%29.95 "Hg10 mi
8:45 PM
Aug 19
72 °FClear.6 mph61%29.92 "Hg10 mi
8:15 PM73 °FSunny.7 mph57%29.92 "Hg10 mi
7:45 PM75 °FSunny.9 mph50%29.92 "Hg10 mi
7:15 PM77 °FSunny.7 mph51%29.92 "Hg10 mi
Weather by CustomWeather, © 2014

See weather overviewHow to use our weather pages